User: anonymous   Login
Location: North Smoke Tower Site
(30.5430°N, 82.3390°W)
Time: 18:28:36
(UTC-04:00)
Language:

Cosmos 1980 Rocket - Orbit

View from above orbital plane
View from above orbital plane
View from above satellite
View from above satellite

Ground track
Ground track

The orbit data is extracted from the following two-line orbital elements,

1 19650U 88102B   17085.76679360 -.00000194 +00000-0 -74423-4 0  9995
2 19650 070.9988 188.4042 0016110 302.9118 057.0455 14.15752612464323
Epoch (UTC): 26 March 2017 18:24:10
Eccentricity: 0.0016110
inclination: 70.9988°
perigee height: 828 km
apogee height: 851 km
right ascension of ascending node: 188.4042°
argument of perigee: 302.9118°
revolutions per day: 14.15752612
mean anomaly at epoch: 57.0455°
orbit number at epoch: 46432

The dashed part of the orbit path shows where the satellite is in the earth's shadow,  

DLR